[[{"header":{"parameterUnit":"m.s-1","parameterCategory":2,"la1":30.2991,"la2":30.254,"lo1":-89.0895,"lo2":-89.0444,"dy":0.0017,"dx":0.0017,"nx":28,"ny":28,"refTime":"2025-07-08T03:00:00:Z","depth":"0","parameterNumber":2,"parameterNumberName":"U-component_of_CURRENTS"},"data":[0,0,0,0,0,0,0,0,0,0,0,0,0,0,0,0,0,0,0,0,0,0,0,0,0,0,0,0,0,0,0,0,0,0,0,0,0,0,0,0,0,0,0,0,0,0,0,0,0,0,0,0,0,0,0,0,0,0,0.1897,0.1897,0,0.1921,0.1921,0.1921,0.1918,0.1918,0.1918,0.1918,0.2023,0.2026,0.2029,0,0,0,0,0,0,0,0,0,0,0,0,0,0.1856,0.1856,0.1897,0.1897,0.1898,0.1921,0.1921,0.1921,0.1918,0.1918,0.1918,0.1918,0.2022,0.2025,0.2029,0,0,0,0,0,0,0,0,0,0,0,0,0,0.1874,0.1856,0.1897,0.1901,0.1902,0.1921,0.1921,0.1921,0.1918,0.1918,0.1918,0.1918,0.2021,0.2025,0.2029,0.2061,0,0,0.2043,0.2045,0,0,0,0,0,0,0,0,0.1873,0.1875,0.19,0.1901,0.1902,0.1918,0.1945,0.1973,0.1918,0.1909,0.1918,0.1918,0.1997,0.2004,0.2004,0.2066,0.207,0.2043,0.2046,0.2048,0.2049,0,0,0,0,0,0,0,0.1871,0.1874,0.1904,0.1901,0.1902,0.1905,0.1906,0.195,0.1954,0.191,0.1911,0.1917,0.1998,0.1999,0.2007,0.2072,0.2043,0.2047,0.205,0.2052,0.2292,0.2296,0,0,0,0,0,0,0.1873,0.1873,0.1903,0.1905,0.1889,0.1906,0.1908,0.1911,0.1952,0.1958,0.1918,0.1917,0.1992,0.2001,0.2011,0.2133,0.2048,0.2052,0.2054,0.2289,0.2293,0.2297,0,0,0,0,0,0,0.1872,0.1876,0.1902,0.1891,0.1895,0.1907,0.1911,0.1912,0.1917,0.1957,0.1964,0.1922,0.1992,0.2004,0.2071,0.2134,0.2054,0.2058,0.2284,0.229,0.2295,0.2327,0,0,0,0,0,0,0.1871,0.1875,0.1877,0.1891,0.1896,0.1923,0.1911,0.1913,0.1923,0.1922,0.1964,0.1972,0.1993,0.2064,0.2075,0.2139,0.2061,0.2279,0.2287,0.2293,0.2321,0.2333,0.2343,0,0,0,0,0,0.1869,0.1874,0.1877,0.1881,0.1899,0.1924,0.1927,0.1932,0.1923,0.1933,0.197,0.1971,0.2118,0.207,0.2082,0.2149,0.2276,0.2285,0.2293,0.2316,0.233,0.2342,0,0,0,0,0,0,0.1855,0.1875,0.1878,0.1888,0.191,0.1925,0.1931,0.1935,0.1967,0.197,0.1999,0.2012,0.2108,0.2125,0.2071,0.2246,0.2206,0.2218,0.222,0.2234,0.2245,0.2244,0.2065,0,0,0,0,0,0.1854,0.1863,0.1887,0.1895,0.1905,0.1918,0.1927,0.1935,0.1965,0.1976,0.201,0.2069,0.2153,0.2184,0.2251,0.2323,0.2316,0.2385,0.2396,0.2405,0.2419,0.2463,0.2477,0.2325,0.2325,0.2325,0,0,0.1849,0.1863,0.1866,0.1893,0.1905,0.1938,0.1922,0.1942,0.1985,0.1987,0.2052,0.2106,0.2184,0.2282,0.2327,0.2298,0.2441,0.2415,0.2422,0.2431,0.2473,0.2487,0.25,0.2331,0.233,0.2329,0,0,0.1849,0.1858,0.1868,0.1894,0.1924,0.1946,0.1954,0.1981,0.2008,0.2071,0.2114,0.2196,0.2285,0.2365,0.2417,0.2529,0.2503,0.2563,0.2606,0.2649,0.266,0.267,0.2643,0.265,0.2559,0.2559,0.2559,0,0.1843,0.1864,0.1876,0.1904,0.1935,0.1953,0.1988,0.2026,0.2076,0.212,0.2101,0.2278,0.2334,0.2483,0.2534,0.2553,0.2543,0.2538,0.2657,0.2668,0.2677,0.2647,0.2655,0.2561,0.2561,0.2561,0.2561,0,0.1859,0.1883,0.1895,0.1943,0.1979,0.201,0.2071,0.2114,0.2144,0.2189,0.2318,0.2387,0.2488,0.254,0.2572,0.2703,0.266,0.2664,0.2606,0.2693,0.2657,0.2665,0.2565,0.2564,0.2563,0.2563,0,0,0.1827,0.1892,0.1897,0.1934,0.2005,0.2038,0.2123,0.2212,0.2274,0.2336,0.242,0.2578,0.2597,0.2661,0.2714,0.2765,0.2819,0.2746,0.2747,0.2687,0.286,0.2646,0.2632,0.2834,0.2837,0.2839,0.2791,0,0.1838,0.1889,0.1931,0.2006,0.2043,0.211,0.219,0.2278,0.2347,0.2432,0.2528,0.2628,0.265,0.2696,0.2758,0.2819,0.2848,0.2829,0.2814,0.2813,0.2586,0.2638,0.251,0.2442,0.2798,0.2799,0.28,0,0.1842,0.1882,0.1939,0.2047,0.2071,0.2129,0.2258,0.2334,0.2469,0.252,0.2621,0.2675,0.2795,0.2779,0.2884,0.2865,0.2874,0.2894,0.2892,0.269,0.2614,0.2426,0.2442,0.24,0.2811,0.281,0.2809,0,0.1806,0.1896,0.1942,0.1976,0.2092,0.2151,0.2228,0.236,0.2431,0.2571,0.261,0.2744,0.2789,0.2851,0.2875,0.2889,0.2937,0.2954,0.2762,0.2744,0.2632,0.2598,0.2581,0.3019,0.3019,0.3019,0.302,0,0.1801,0.1844,0.193,0.1956,0.204,0.2135,0.2237,0.2332,0.2456,0.2534,0.2643,0.2702,0.2812,0.2841,0.2875,0.2803,0.2923,0.2768,0.2729,0.2633,0.2602,0.2556,0.256,0.3017,0.3018,0.3018,0.3019,0,0.1752,0.18,0.1861,0.1975,0.2017,0.2077,0.2221,0.2295,0.2408,0.2502,0.2539,0.2669,0.2687,0.2731,0.2805,0.2754,0.2646,0.2691,0.2522,0.2462,0.2201,0.221,0.2041,0.2001,0.2466,0.2461,0.2456,0,0.1735,0.1752,0.1846,0.1882,0.1936,0.2037,0.2108,0.2253,0.2334,0.2471,0.2513,0.2553,0.2566,0.2534,0.2477,0.2416,0.2438,0.2238,0.2253,0.2155,0.2142,0.209,0.2069,0.2119,0.2112,0.2106,0.2102,0,0.1708,0.1725,0.1766,0.1828,0.1899,0.1978,0.2096,0.2139,0.2294,0.2344,0.2405,0.2414,0.2361,0.2233,0.2111,0.2082,0.2099,0.211,0.2107,0.1932,0.1786,0.1737,0.2143,0.2051,0.2056,0.206,0.2063,0.2065,0.1682,0.1687,0.1726,0.1783,0.1851,0.191,0.1941,0.2038,0.2096,0.2133,0.2222,0.2151,0.2062,0.1867,0.1813,0.1608,0.1696,0.1562,0.1598,0.1565,0.1472,0.1696,0.1491,0.1493,0.1495,0.1496,0.1497,0,0.1655,0.1656,0.1694,0.1746,0.1777,0.1841,0.1924,0.1919,0.1917,0.1924,0.1912,0.1739,0.1574,0.1494,0.1274,0.1158,0.1168,0.1124,0.1121,0.1147,0.1438,0.137,0.101,0.101,0.101,0.101,0.101,0.1011,0.1644,0.1638,0.1639,0.1657,0.169,0.1698,0.171,0.1684,0.1676,0.1528,0.14,0.1351,0.1282,0.109,0.0923,0.09,0.0899,0.0751,0.0842,0.1148,0.1196,0.1242,0.1182,0.0788,0.0788,0.0509,0.0507,0.0505]},{"header":{"parameterUnit":"m.s-1","parameterCategory":2,"la1":30.2991,"la2":30.254,"lo1":-89.0895,"lo2":-89.0444,"dy":0.0017,"dx":0.0017,"nx":28,"ny":28,"refTime":"2025-07-08T03:00:00:Z","depth":"0","parameterNumber":3,"parameterNumberName":"V-component_of_CURRENTS"},"data":[0,0,0,0,0,0,0,0,0,0,0,0,0,0,0,0,0,0,0,0,0,0,0,0,0,0,0,0,0,0,0,0,0,0,0,0,0,0,0,0,0,0,0,0,0,0,0,0,0,0,0,0,0,0,0,0,0,0,0.0045,0.0044,0,0.0009,0.0008,0.0008,-0.0017,-0.0017,-0.0017,-0.0017,-0.009,-0.0092,-0.0093,0,0,0,0,0,0,0,0,0,0,0,0,0,0.0064,0.0063,0.0045,0.0044,0.0044,0.0009,0.0008,0.0007,-0.0017,-0.0017,-0.0017,-0.0017,-0.0089,-0.0091,-0.0094,0,0,0,0,0,0,0,0,0,0,0,0,0,0.0043,0.0063,0.0045,0.0028,0.0026,0.0009,0.0008,0.0007,-0.0017,-0.0017,-0.0017,-0.0017,-0.0088,-0.0091,-0.0094,-0.0108,0,0,-0.0102,-0.0103,0,0,0,0,0,0,0,0,0.0045,0.0043,0.0031,0.0029,0.0027,0.0001,-0.0012,-0.0033,-0.0017,-0.0002,-0.0017,-0.0018,-0.0062,-0.0067,-0.0074,-0.0111,-0.0114,-0.0103,-0.0104,-0.0105,-0.0106,0,0,0,0,0,0,0,0.0046,0.0044,0.0029,0.0031,0.0028,0.0013,0.001,-0.0016,-0.0032,-0.0003,-0.0005,-0.0007,-0.0064,-0.0072,-0.0076,-0.0116,-0.0102,-0.0105,-0.0107,-0.0108,-0.0154,-0.0153,0,0,0,0,0,0,0.0054,0.0045,0.0031,0.0029,0.0037,0.0013,0.0009,0.0009,-0.0031,-0.0037,-0.0007,-0.0008,-0.0067,-0.0073,-0.0079,-0.0083,-0.0105,-0.0108,-0.011,-0.0154,-0.0154,-0.0153,0,0,0,0,0,0,0.0055,0.0053,0.0032,0.0037,0.0033,0.0013,0.0012,0.0008,0.0001,-0.0033,-0.004,-0.001,-0.0067,-0.0075,-0.0102,-0.0087,-0.0109,-0.0112,-0.0155,-0.0154,-0.0153,-0.0102,0,0,0,0,0,0,0.0055,0.0054,0.0055,0.0037,0.0033,0.0026,0.0012,0.0008,0.0,-0.0002,-0.0038,-0.0045,-0.0068,-0.0097,-0.0104,-0.0091,-0.0114,-0.0155,-0.0154,-0.0154,-0.0104,-0.01,-0.0096,0,0,0,0,0,0.0056,0.0062,0.0056,0.0054,0.0036,0.0026,0.0023,0.0007,0.0,-0.0001,-0.0027,-0.0044,-0.0097,-0.01,-0.0108,-0.0095,-0.0156,-0.0155,-0.0154,-0.0106,-0.01,-0.0096,0,0,0,0,0,0,0.0072,0.006,0.0052,0.0054,0.0042,0.0022,0.0021,0.001,-0.0011,-0.0014,-0.0047,-0.0056,-0.007,-0.0092,-0.0095,-0.0105,-0.0125,-0.0126,-0.0086,-0.0082,-0.0077,-0.0031,-0.0116,0,0,0,0,0,0.0076,0.0078,0.0062,0.0064,0.006,0.0041,0.0034,0.0024,0.0004,-0.0005,-0.0031,-0.0055,-0.0072,-0.0085,-0.0107,-0.0119,-0.0106,-0.0114,-0.011,-0.0106,-0.0073,-0.0026,-0.0014,-0.015,-0.015,-0.015,0,0,0.0082,0.0077,0.0077,0.0067,0.0057,0.0054,0.0037,0.0031,0.0029,-0.001,-0.0024,-0.0044,-0.0073,-0.0083,-0.009,-0.01,-0.0069,-0.0105,-0.0101,-0.007,-0.0024,-0.001,0.0002,-0.0149,-0.0149,-0.0149,0,0,0.0098,0.0091,0.0097,0.009,0.008,0.0067,0.0068,0.0048,0.004,0.0023,0.0002,0.0001,-0.0047,-0.0044,-0.0054,-0.0037,-0.0048,-0.0059,-0.0,0.0044,0.0057,0.0068,0.0069,0.008,-0.0057,-0.0057,-0.0056,0,0.0105,0.0111,0.0097,0.0101,0.0099,0.0076,0.0081,0.0069,0.0043,0.0052,0.0025,0.0017,-0.0016,0.0008,0.0008,-0.0022,-0.0017,-0.0019,0.0053,0.0065,0.0076,0.0074,0.0086,-0.0054,-0.0054,-0.0055,-0.0055,0,0.0124,0.0128,0.0133,0.013,0.0124,0.0126,0.0109,0.0106,0.0092,0.0091,0.0108,0.0082,0.0088,0.007,0.0038,0.0097,0.0067,0.0054,0.0047,0.0093,0.0087,0.0098,-0.005,-0.0051,-0.0052,-0.0053,0,0,0.0145,0.0146,0.0149,0.0155,0.0141,0.0142,0.0143,0.0151,0.0184,0.0161,0.0208,0.0184,0.0194,0.0186,0.016,0.0194,0.0248,0.0156,0.0157,0.0169,0.0318,0.0271,0.0278,0.0247,0.025,0.0252,0.0272,0,0.0164,0.0184,0.0175,0.0191,0.0199,0.0185,0.0194,0.0201,0.0213,0.0251,0.0253,0.0278,0.0229,0.0242,0.0271,0.0258,0.0286,0.0242,0.0263,0.0264,0.0227,0.0294,0.0301,0.0319,0.0283,0.0285,0.0286,0,0.0187,0.0198,0.0219,0.0234,0.0238,0.0244,0.0281,0.0288,0.0334,0.0349,0.0394,0.0393,0.0431,0.0386,0.0422,0.0393,0.0369,0.0358,0.0358,0.0317,0.024,0.0272,0.0341,0.0327,0.0303,0.0302,0.0301,0,0.0216,0.0231,0.0251,0.0253,0.0264,0.0279,0.0286,0.0328,0.0365,0.0427,0.0474,0.0512,0.0538,0.054,0.0492,0.0466,0.0528,0.0487,0.0425,0.0419,0.0435,0.0426,0.0513,0.0539,0.0539,0.0539,0.0539,0,0.0243,0.026,0.027,0.0282,0.0322,0.0313,0.0376,0.0397,0.0462,0.0538,0.0534,0.0605,0.0585,0.0599,0.0548,0.0521,0.0571,0.0467,0.0444,0.0445,0.0437,0.0432,0.0409,0.054,0.054,0.0539,0.0539,0,0.027,0.0275,0.0303,0.0324,0.0336,0.0366,0.042,0.0482,0.0522,0.0626,0.0647,0.0693,0.0706,0.0662,0.0661,0.0594,0.056,0.054,0.0516,0.0491,0.041,0.0388,0.046,0.0468,0.0492,0.0491,0.049,0,0.0284,0.0301,0.0339,0.037,0.0382,0.0425,0.0472,0.0514,0.0589,0.0685,0.0749,0.078,0.0819,0.0773,0.0672,0.0586,0.0559,0.0521,0.0487,0.044,0.0401,0.0392,0.0394,0.051,0.0509,0.0509,0.0509,0,0.0312,0.0326,0.0354,0.042,0.047,0.0529,0.0596,0.0662,0.0729,0.0812,0.0915,0.0947,0.0887,0.0819,0.0675,0.0605,0.0523,0.051,0.0503,0.0472,0.0436,0.0419,0.0422,0.0506,0.0506,0.0507,0.0507,0.0507,0.0336,0.0364,0.0408,0.0472,0.0536,0.0626,0.069,0.0777,0.0887,0.1007,0.1024,0.1073,0.0951,0.0762,0.0669,0.0497,0.0502,0.0449,0.0438,0.0441,0.0438,0.0409,0.0438,0.0438,0.0437,0.0437,0.0437,0,0.0361,0.0399,0.0461,0.0538,0.0617,0.0646,0.0772,0.0851,0.0984,0.1073,0.1145,0.1099,0.0959,0.0792,0.0557,0.0458,0.0438,0.0408,0.0428,0.0441,0.0461,0.0449,0.0434,0.0435,0.0435,0.0435,0.0435,0.0435,0.0377,0.0432,0.0464,0.0588,0.0654,0.0768,0.0845,0.0969,0.1058,0.1163,0.1178,0.1174,0.1054,0.07,0.05,0.0446,0.0424,0.0383,0.0381,0.0404,0.0408,0.0412,0.0399,0.0374,0.0374,0.0392,0.0392,0.0392]}],[{"header":{"parameterUnit":"m.s-1","parameterCategory":2,"la1":30.2991,"la2":30.254,"lo1":-89.0895,"lo2":-89.0444,"dy":0.0017,"dx":0.0017,"nx":28,"ny":28,"refTime":"2025-07-08T03:00:00:Z","depth":"2","parameterNumber":2,"parameterNumberName":"U-component_of_CURRENTS"},"data":[0,0,0,0,0,0,0,0,0,0,0,0,0,0,0,0,0,0,0,0,0,0,0,0,0,0,0,0,0,0,0,0,0,0,0,0,0,0,0,0,0,0,0,0,0,0,0,0,0,0,0,0,0,0,0,0,0,0,0.147,0.147,0,0.1492,0.1492,0.1493,0.1495,0.1495,0.1494,0.1494,0.1497,0.1497,0.1498,0,0,0,0,0,0,0,0,0,0,0,0,0,0.147,0.1469,0.1469,0.147,0.147,0.1492,0.1492,0.1493,0.1495,0.1495,0.1494,0.1494,0.1497,0.1497,0.1498,0,0,0,0,0,0,0,0,0,0,0,0,0,0.148,0.1469,0.1469,0.1473,0.1473,0.1492,0.1492,0.1493,0.1495,0.1495,0.1494,0.1494,0.1497,0.1497,0.1498,0.1512,0,0,0.15,0.15,0,0,0,0,0,0,0,0,0.1479,0.148,0.1472,0.1473,0.1473,0.1489,0.1493,0.1498,0.1495,0.1488,0.1494,0.1493,0.1492,0.1493,0.1501,0.1512,0.1512,0.15,0.15,0.15,0.1501,0,0,0,0,0,0,0,0.1478,0.1479,0.148,0.1472,0.1473,0.1487,0.1488,0.1495,0.1493,0.1489,0.1489,0.1489,0.1492,0.15,0.15,0.1512,0.15,0.15,0.1501,0.1501,0.1663,0.1666,0,0,0,0,0,0,0.1471,0.1478,0.1479,0.148,0.1473,0.1487,0.1488,0.1485,0.1494,0.1494,0.149,0.1489,0.1499,0.15,0.1501,0.1579,0.15,0.1501,0.1501,0.1659,0.1664,0.1668,0,0,0,0,0,0,0.1471,0.1471,0.1478,0.1479,0.1481,0.1487,0.1485,0.1486,0.1496,0.1494,0.1495,0.1499,0.1499,0.15,0.1506,0.1576,0.1501,0.1502,0.1654,0.166,0.1666,0.1696,0,0,0,0,0,0,0.1471,0.1471,0.1473,0.1478,0.148,0.1497,0.1485,0.1487,0.1497,0.1497,0.1502,0.1502,0.1498,0.1505,0.1507,0.1576,0.1502,0.1649,0.1657,0.1664,0.169,0.1702,0.1713,0,0,0,0,0,0.1471,0.1473,0.1473,0.1474,0.1481,0.1498,0.1501,0.1505,0.1498,0.1511,0.1505,0.1502,0.1557,0.1506,0.1508,0.1579,0.1646,0.1655,0.1663,0.1685,0.17,0.1712,0,0,0,0,0,0,0.1474,0.1473,0.1474,0.1475,0.149,0.1498,0.1509,0.1509,0.1517,0.1516,0.1508,0.1508,0.1556,0.1565,0.1511,0.1659,0.162,0.1629,0.1636,0.165,0.1661,0.168,0.1503,0,0,0,0,0,0.1476,0.1478,0.1484,0.1489,0.1495,0.1504,0.1512,0.1518,0.1522,0.1525,0.1532,0.156,0.1598,0.1613,0.1643,0.169,0.168,0.1758,0.177,0.1778,0.1802,0.184,0.1855,0.1697,0.1697,0.1697,0,0,0.1477,0.1479,0.1479,0.149,0.15,0.1517,0.1508,0.1527,0.155,0.1524,0.1559,0.1585,0.1618,0.1682,0.1711,0.1692,0.1813,0.179,0.1796,0.1816,0.185,0.1865,0.1878,0.1703,0.1702,0.1701,0,0,0.1482,0.1485,0.1489,0.1504,0.1523,0.1534,0.154,0.156,0.158,0.1606,0.162,0.1676,0.1712,0.1768,0.1795,0.1891,0.1866,0.1928,0.1996,0.2032,0.2043,0.2054,0.2014,0.202,0.1938,0.1938,0.1938,0,0.1485,0.1492,0.1496,0.151,0.1531,0.154,0.1565,0.1586,0.161,0.1633,0.1625,0.1736,0.1763,0.1859,0.1917,0.1915,0.1903,0.1924,0.204,0.2051,0.2061,0.2018,0.2025,0.1941,0.1941,0.194,0.194,0,0.1494,0.1508,0.1516,0.1537,0.1562,0.1587,0.1616,0.1641,0.1663,0.1691,0.1781,0.1829,0.1898,0.1947,0.1959,0.2083,0.2035,0.2035,0.1987,0.2078,0.2027,0.2034,0.1944,0.1944,0.1943,0.1942,0,0,0.1482,0.1515,0.1519,0.1536,0.1584,0.1598,0.1647,0.1695,0.1727,0.1783,0.1848,0.1963,0.2,0.2042,0.209,0.2155,0.221,0.2143,0.2144,0.207,0.2235,0.2065,0.2055,0.2222,0.2225,0.2227,0.215,0,0.1493,0.1514,0.1544,0.1583,0.1599,0.1639,0.1684,0.173,0.1778,0.184,0.1924,0.2012,0.2033,0.2097,0.2159,0.2204,0.2239,0.2228,0.219,0.2188,0.1999,0.2062,0.1925,0.1835,0.2156,0.2157,0.2158,0,0.1493,0.1509,0.1543,0.1601,0.1616,0.1644,0.1716,0.1767,0.1853,0.1897,0.1989,0.2052,0.2172,0.2185,0.2264,0.2251,0.2262,0.2283,0.2279,0.2124,0.2033,0.1813,0.1835,0.2168,0.2167,0.2167,0.2166,0,0.1463,0.1513,0.154,0.1558,0.162,0.1649,0.1696,0.1777,0.1838,0.1954,0.1999,0.2116,0.2181,0.2235,0.2266,0.228,0.2315,0.2319,0.2162,0.2146,0.2026,0.1994,0.2385,0.2385,0.2385,0.2385,0.2386,0,0.1461,0.148,0.1519,0.1528,0.1573,0.1633,0.1705,0.1759,0.1867,0.1931,0.2037,0.2096,0.221,0.2236,0.2263,0.2195,0.2288,0.218,0.2135,0.2026,0.1998,0.2301,0.2292,0.2382,0.2383,0.2384,0.2384,0,0.1427,0.1453,0.148,0.1535,0.1557,0.1591,0.1702,0.1746,0.1846,0.1933,0.1983,0.2089,0.2095,0.2137,0.2201,0.2152,0.2141,0.2099,0.192,0.1855,0.1944,0.1939,0.1914,0.1908,0.1903,0.1898,0.1895,0,0.1414,0.1418,0.1468,0.1488,0.1516,0.1576,0.1614,0.1726,0.1784,0.1905,0.1936,0.1988,0.1977,0.1938,0.1909,0.1852,0.1977,0.1681,0.1705,0.1948,0.1906,0.1909,0.1911,0.1542,0.1535,0.153,0.1526,0,0.1392,0.1405,0.1422,0.1455,0.1487,0.1531,0.1598,0.163,0.1747,0.1785,0.181,0.1815,0.1772,0.1648,0.1571,0.1542,0.1677,0.1568,0.1902,0.1668,0.1587,0.1548,0.1565,0.1481,0.1485,0.1488,0.1491,0.1493,0.1376,0.1376,0.1392,0.142,0.1456,0.1466,0.1466,0.1511,0.1542,0.1568,0.163,0.1555,0.1548,0.1339,0.1265,0.1208,0.1337,0.1299,0.1321,0.1346,0.1303,0.1216,0.1028,0.103,0.1031,0.1033,0.1034,0,0.135,0.1345,0.1362,0.1371,0.1369,0.1413,0.1438,0.1401,0.1356,0.1377,0.1357,0.119,0.1068,0.1062,0.09,0.0855,0.0919,0.0818,0.0918,0.0961,0.1001,0.0947,0.0574,0.0573,0.0572,0.0571,0,0,0.1338,0.132,0.1311,0.1276,0.1282,0.1243,0.1227,0.1162,0.1154,0.106,0.1006,0.1049,0.104,0.0819,0.0758,0.0644,0.0816,0.0612,0.0979,0.1144,0.1182,0.1266,0.1228,0,0,0,0,0]},{"header":{"parameterUnit":"m.s-1","parameterCategory":2,"la1":30.2991,"la2":30.254,"lo1":-89.0895,"lo2":-89.0444,"dy":0.0017,"dx":0.0017,"nx":28,"ny":28,"refTime":"2025-07-08T03:00:00:Z","depth":"2","parameterNumber":3,"parameterNumberName":"V-component_of_CURRENTS"},"data":[0,0,0,0,0,0,0,0,0,0,0,0,0,0,0,0,0,0,0,0,0,0,0,0,0,0,0,0,0,0,0,0,0,0,0,0,0,0,0,0,0,0,0,0,0,0,0,0,0,0,0,0,0,0,0,0,0,0,0.0047,0.0047,0,0.0016,0.0015,0.0015,-0.0005,-0.0005,-0.0005,-0.0005,-0.0047,-0.0048,-0.0049,0,0,0,0,0,0,0,0,0,0,0,0,0,0.0066,0.0066,0.0047,0.0047,0.0047,0.0016,0.0015,0.0015,-0.0005,-0.0005,-0.0005,-0.0005,-0.0047,-0.0048,-0.0049,0,0,0,0,0,0,0,0,0,0,0,0,0,0.0048,0.0066,0.0047,0.0033,0.0032,0.0016,0.0015,0.0015,-0.0005,-0.0005,-0.0005,-0.0006,-0.0046,-0.0048,-0.0049,-0.0057,0,0,-0.0054,-0.0055,0,0,0,0,0,0,0,0,0.0049,0.0047,0.0036,0.0034,0.0033,0.001,0.0007,-0.001,-0.0005,0.0008,-0.0005,-0.0006,-0.0029,-0.0032,-0.0038,-0.0059,-0.006,-0.0054,-0.0055,-0.0056,-0.0056,0,0,0,0,0,0,0,0.005,0.0048,0.0034,0.0035,0.0033,0.002,0.0018,0.0003,-0.001,0.0007,0.0006,0.0003,-0.003,-0.0036,-0.0039,-0.0061,-0.0054,-0.0056,-0.0056,-0.0057,-0.0087,-0.0087,0,0,0,0,0,0,0.0057,0.005,0.0035,0.0033,0.0041,0.002,0.0017,0.0017,-0.0009,-0.0013,0.0003,0.0002,-0.0034,-0.0037,-0.0041,-0.0032,-0.0056,-0.0057,-0.0058,-0.0087,-0.0087,-0.0087,0,0,0,0,0,0,0.0057,0.0056,0.0037,0.0041,0.0038,0.002,0.0019,0.0016,0.001,-0.0012,-0.0016,0.0001,-0.0034,-0.0038,-0.0048,-0.0034,-0.0058,-0.0059,-0.0088,-0.0087,-0.0087,-0.0026,0,0,0,0,0,0,0.0058,0.0056,0.0058,0.0042,0.0038,0.0032,0.0019,0.0016,0.0009,0.0008,-0.0015,-0.0019,-0.0034,-0.0046,-0.005,-0.0037,-0.0061,-0.0088,-0.0088,-0.0087,-0.0028,-0.0024,-0.002,0,0,0,0,0,0.0059,0.0064,0.0058,0.0056,0.004,0.0032,0.0029,0.0015,0.0009,0.0009,-0.0005,-0.0019,-0.0047,-0.0047,-0.0052,-0.0039,-0.0088,-0.0088,-0.0087,-0.003,-0.0025,-0.002,0,0,0,0,0,0,0.0072,0.0062,0.0055,0.0056,0.0046,0.0029,0.0028,0.0018,0.0006,0.0005,-0.0016,-0.0021,-0.0023,-0.0044,-0.0043,-0.0049,-0.007,-0.0071,-0.0025,-0.0021,-0.0017,0.002,-0.0062,0,0,0,0,0,0.0076,0.0078,0.0063,0.0065,0.0061,0.0045,0.0039,0.003,0.0018,0.0013,-0.0003,-0.002,-0.0026,-0.0033,-0.0046,-0.0051,-0.0048,-0.0048,-0.0043,-0.004,-0.0014,0.0017,0.0027,-0.0086,-0.0086,-0.0086,0,0,0.0081,0.0077,0.0076,0.0068,0.0059,0.0059,0.0041,0.0036,0.004,0.001,0.0009,-0.0005,-0.0024,-0.0025,-0.0028,-0.004,-0.0014,-0.0039,-0.0036,-0.0012,0.0018,0.003,0.004,-0.0086,-0.0086,-0.0086,0,0,0.0095,0.0089,0.0094,0.0089,0.008,0.0071,0.0071,0.0055,0.0052,0.0047,0.0033,0.004,0.0005,0.0015,0.001,0.003,0.0009,0.0005,0.0056,0.0086,0.0096,0.0106,0.0096,0.0104,0.0005,0.0005,0.0005,0,0.0102,0.0108,0.0094,0.0099,0.01,0.0079,0.0087,0.0082,0.0065,0.008,0.0052,0.0057,0.0036,0.007,0.0069,0.0045,0.0037,0.0041,0.0095,0.0104,0.0113,0.0101,0.0109,0.0008,0.0008,0.0007,0.0007,0,0.0119,0.0124,0.0128,0.013,0.0128,0.0131,0.0123,0.0129,0.0119,0.0121,0.0146,0.0128,0.0139,0.0123,0.0099,0.0148,0.0112,0.01,0.009,0.0129,0.0112,0.012,0.0012,0.0011,0.001,0.001,0,0,0.0137,0.014,0.0143,0.0153,0.0146,0.0151,0.0166,0.0185,0.0222,0.0203,0.0251,0.0241,0.0242,0.0239,0.0216,0.0235,0.0271,0.0189,0.019,0.0194,0.0305,0.0262,0.0266,0.0264,0.0266,0.0268,0.0258,0,0.0156,0.0177,0.0172,0.0195,0.0206,0.0203,0.0226,0.0243,0.0257,0.0296,0.0301,0.0327,0.0281,0.0291,0.0307,0.0284,0.0298,0.0273,0.0255,0.0254,0.0226,0.0277,0.0275,0.0266,0.0266,0.0267,0.0268,0,0.0178,0.0191,0.0215,0.0244,0.025,0.0262,0.0316,0.0333,0.0384,0.0401,0.0438,0.0433,0.0462,0.0414,0.0421,0.04,0.0364,0.0342,0.034,0.0296,0.0229,0.0231,0.0279,0.028,0.0279,0.0278,0.0278,0,0.0205,0.0227,0.025,0.0255,0.028,0.0303,0.0322,0.0372,0.0417,0.0474,0.0514,0.054,0.0556,0.0536,0.047,0.045,0.0465,0.0433,0.0365,0.0359,0.0355,0.0345,0.0459,0.0459,0.0459,0.0459,0.0459,0,0.0232,0.0254,0.0267,0.0281,0.0332,0.0334,0.0405,0.0436,0.0504,0.0577,0.0571,0.0625,0.0589,0.058,0.0514,0.046,0.0501,0.0397,0.0373,0.0369,0.0361,0.0375,0.0365,0.0459,0.0459,0.0459,0.0459,0,0.0257,0.0263,0.0296,0.0327,0.0344,0.038,0.0451,0.0518,0.0559,0.0655,0.0675,0.0703,0.0682,0.0623,0.0585,0.0519,0.0468,0.0435,0.0409,0.0383,0.0326,0.032,0.0376,0.0375,0.0374,0.0373,0.0372,0,0.027,0.0288,0.033,0.0364,0.0379,0.0434,0.0491,0.0546,0.062,0.0702,0.0757,0.0758,0.0765,0.0674,0.0569,0.0462,0.045,0.0386,0.0365,0.0357,0.0327,0.0322,0.0317,0.0365,0.0364,0.0363,0.0363,0,0.0297,0.0311,0.034,0.0407,0.0463,0.0533,0.0609,0.0676,0.0751,0.0812,0.0878,0.0879,0.0789,0.0684,0.0532,0.0456,0.0403,0.037,0.0407,0.038,0.0344,0.0315,0.0311,0.0358,0.0359,0.0359,0.0359,0.0359,0.0319,0.0347,0.0389,0.0456,0.0526,0.0619,0.0687,0.0768,0.0863,0.0948,0.0945,0.0927,0.0817,0.0609,0.0485,0.0352,0.0365,0.0314,0.0317,0.032,0.0315,0.028,0.0278,0.0278,0.0278,0.0278,0.0278,0,0.0343,0.038,0.0441,0.052,0.0603,0.0635,0.0764,0.083,0.0927,0.0973,0.0997,0.0867,0.0741,0.0603,0.0404,0.0291,0.0289,0.0247,0.0275,0.0281,0.0285,0.0279,0.0232,0.0232,0.0231,0.0231,0,0,0.0358,0.041,0.0441,0.0565,0.0631,0.0746,0.082,0.0907,0.096,0.0991,0.0967,0.0932,0.0771,0.0616,0.0464,0.0349,0.034,0.0321,0.037,0.0427,0.0433,0.0335,0.0333,0,0,0,0,0]}],[{"header":{"parameterUnit":"m.s-1","parameterCategory":2,"la1":30.2991,"la2":30.254,"lo1":-89.0895,"lo2":-89.0444,"dy":0.0017,"dx":0.0017,"nx":28,"ny":28,"refTime":"2025-07-08T03:00:00:Z","depth":"4","parameterNumber":2,"parameterNumberName":"U-component_of_CURRENTS"},"data":[0,0,0,0,0,0,0,0,0,0,0,0,0,0,0,0,0,0,0,0,0,0,0,0,0,0,0,0,0,0,0,0,0,0,0,0,0,0,0,0,0,0,0,0,0,0,0,0,0,0,0,0,0,0,0,0,0,0,0.0775,0.0775,0,0.0735,0.0734,0.0734,0.0734,0.0735,0.0735,0.0736,0.0673,0.067,0.0668,0,0,0,0,0,0,0,0,0,0,0,0,0,0.0819,0.0818,0.0775,0.0775,0.0775,0.0735,0.0734,0.0734,0.0734,0.0735,0.0735,0.0736,0.0673,0.0671,0.0668,0,0,0,0,0,0,0,0,0,0,0,0,0,0.0789,0.0818,0.0775,0.0771,0.0771,0.0735,0.0734,0.0733,0.0734,0.0735,0.0736,0.0737,0.0674,0.0671,0.0667,0.0625,0,0,0.0657,0.0655,0,0,0,0,0,0,0,0,0.0791,0.0788,0.0772,0.0772,0.0771,0.0742,0.0727,0.0697,0.0733,0.0746,0.0736,0.0737,0.0694,0.0689,0.0677,0.0622,0.0619,0.0656,0.0654,0.0653,0.0652,0,0,0,0,0,0,0,0.0793,0.0789,0.0757,0.0772,0.0771,0.076,0.0757,0.0721,0.0713,0.0745,0.0745,0.0743,0.0694,0.068,0.0675,0.0618,0.0657,0.0653,0.0651,0.065,0.0633,0.0635,0,0,0,0,0,0,0.0802,0.0791,0.0759,0.0756,0.0786,0.0759,0.0755,0.0749,0.0713,0.071,0.0742,0.0743,0.0686,0.0679,0.0673,0.068,0.0653,0.065,0.0647,0.0632,0.0634,0.0636,0,0,0,0,0,0,0.0803,0.08,0.076,0.0775,0.0769,0.0757,0.075,0.0747,0.0752,0.0712,0.0708,0.0752,0.0686,0.0678,0.0664,0.0676,0.0648,0.0645,0.063,0.0632,0.0635,0.0656,0,0,0,0,0,0,0.0805,0.08,0.0809,0.0775,0.0769,0.0747,0.0749,0.0746,0.075,0.0751,0.0719,0.0713,0.0686,0.067,0.0661,0.067,0.0642,0.0628,0.0631,0.0634,0.0653,0.0659,0.0664,0,0,0,0,0,0.0806,0.081,0.0809,0.0806,0.0777,0.0747,0.0743,0.0737,0.0749,0.0746,0.0738,0.0715,0.0685,0.0667,0.0657,0.0666,0.0626,0.063,0.0634,0.0651,0.0658,0.0664,0,0,0,0,0,0,0.0835,0.081,0.0808,0.0805,0.0783,0.0748,0.0754,0.0746,0.0736,0.075,0.0716,0.0709,0.0708,0.0689,0.0671,0.0678,0.0659,0.0661,0.0676,0.0682,0.0688,0.0722,0.0639,0,0,0,0,0,0.0845,0.0843,0.0811,0.0812,0.0806,0.0784,0.0777,0.077,0.0753,0.0751,0.0735,0.0727,0.0711,0.07,0.0686,0.067,0.0679,0.0679,0.0685,0.0689,0.0714,0.0754,0.0765,0.0648,0.0648,0.0648,0,0,0.0857,0.0844,0.0844,0.0819,0.0808,0.0787,0.0783,0.0778,0.0767,0.0744,0.0745,0.0741,0.0715,0.0709,0.0707,0.0693,0.0721,0.0694,0.0697,0.0721,0.0759,0.077,0.078,0.0651,0.065,0.065,0,0,0.087,0.087,0.0868,0.0849,0.0834,0.0812,0.0815,0.0794,0.0796,0.0781,0.0781,0.0798,0.0752,0.0756,0.0743,0.0772,0.0753,0.0766,0.0806,0.0843,0.0853,0.0862,0.0857,0.0866,0.0762,0.0762,0.0762,0,0.089,0.0873,0.0863,0.085,0.0836,0.0824,0.0808,0.0799,0.0782,0.0793,0.079,0.0796,0.0779,0.0784,0.0805,0.0783,0.0789,0.0773,0.0849,0.0858,0.0867,0.0861,0.087,0.0764,0.0764,0.0764,0.0763,0,0.0885,0.0876,0.0875,0.085,0.0835,0.0822,0.0802,0.0814,0.0818,0.0812,0.0839,0.0834,0.0849,0.0842,0.0825,0.0881,0.0858,0.0852,0.0828,0.088,0.087,0.0879,0.0766,0.0766,0.0765,0.0765,0,0,0.0906,0.0876,0.0877,0.0855,0.0833,0.0809,0.082,0.0812,0.0834,0.084,0.0869,0.0874,0.091,0.0905,0.0903,0.0936,0.0991,0.0927,0.0928,0.0913,0.1048,0.095,0.095,0.0996,0.0998,0.1,0.1004,0,0.0901,0.0874,0.0861,0.0827,0.0803,0.0804,0.0806,0.0811,0.0829,0.0862,0.0889,0.0915,0.0916,0.0942,0.0979,0.1001,0.1022,0.0989,0.1009,0.101,0.091,0.096,0.1008,0.101,0.1012,0.1014,0.1015,0,0.089,0.0868,0.0845,0.0805,0.0799,0.0788,0.0806,0.0813,0.0867,0.0895,0.0954,0.097,0.1037,0.1028,0.1098,0.1077,0.1079,0.1081,0.108,0.0997,0.093,0.0958,0.1031,0.1029,0.1028,0.1027,0.1026,0,0.0888,0.0847,0.0828,0.0812,0.0782,0.0792,0.0795,0.0839,0.0861,0.0948,0.0982,0.1047,0.1089,0.113,0.1143,0.1134,0.1196,0.1176,0.1077,0.1068,0.1142,0.1133,0.1224,0.1224,0.1224,0.1224,0.1224,0,0.0869,0.0848,0.0827,0.0813,0.0799,0.0793,0.0818,0.0854,0.0914,0.0947,0.1018,0.1047,0.1124,0.1152,0.1165,0.1148,0.1215,0.1103,0.1078,0.1145,0.1137,0.1146,0.1137,0.1224,0.1224,0.1224,0.1224,0,0.0864,0.0854,0.0826,0.0805,0.08,0.0804,0.0821,0.0839,0.0919,0.0977,0.1008,0.1069,0.1116,0.1149,0.1198,0.1157,0.1159,0.1124,0.1177,0.1152,0.0996,0.0988,0.103,0.1027,0.1025,0.1022,0.1021,0,0.0852,0.0844,0.0832,0.0818,0.0809,0.0812,0.0814,0.0858,0.0875,0.0969,0.0978,0.1044,0.1079,0.1066,0.111,0.1116,0.1095,0.1071,0.1062,0.1012,0.0984,0.098,0.0976,0.1016,0.1016,0.1015,0.1014,0,0.0828,0.0849,0.0834,0.0816,0.0803,0.0778,0.0782,0.0782,0.0842,0.0917,0.0937,0.0956,0.0987,0.1011,0.1015,0.1015,0.1087,0.1044,0.1049,0.1041,0.0996,0.097,0.0969,0.1005,0.1007,0.1008,0.1008,0,0.0826,0.0821,0.0819,0.0787,0.0773,0.0727,0.0734,0.072,0.0741,0.0837,0.0836,0.0914,0.0977,0.0955,0.0962,0.0959,0.0945,0.0903,0.0916,0.0926,0.089,0.0818,0.0768,0,0,0,0,0,0.0804,0.079,0.0771,0.072,0.0703,0.0691,0.069,0.0698,0.0751,0.0747,0.0792,0.0822,0.0843,0.0861,0.0839,0.0902,0.094,0.0868,0.0897,0.0955,0.0966,0.0933,0,0,0,0,0,0,0.0786,0.0784,0.0761,0.0667,0.0623,0.0587,0.0588,0.0622,0.0609,0.0686,0.0698,0.0766,0.0792,0.0865,0.0829,0.0835,0.0831,0.0912,0.0909,0.0949,0.0959,0.0967,0.0937,0,0,0,0,0]},{"header":{"parameterUnit":"m.s-1","parameterCategory":2,"la1":30.2991,"la2":30.254,"lo1":-89.0895,"lo2":-89.0444,"dy":0.0017,"dx":0.0017,"nx":28,"ny":28,"refTime":"2025-07-08T03:00:00:Z","depth":"4","parameterNumber":3,"parameterNumberName":"V-component_of_CURRENTS"},"data":[0,0,0,0,0,0,0,0,0,0,0,0,0,0,0,0,0,0,0,0,0,0,0,0,0,0,0,0,0,0,0,0,0,0,0,0,0,0,0,0,0,0,0,0,0,0,0,0,0,0,0,0,0,0,0,0,0,0,0.0062,0.0062,0,0.0056,0.0056,0.0056,0.0051,0.0051,0.0051,0.0051,0.0101,0.0103,0.0104,0,0,0,0,0,0,0,0,0,0,0,0,0,0.0071,0.0071,0.0062,0.0062,0.0062,0.0056,0.0056,0.0056,0.0051,0.0051,0.0051,0.0051,0.0101,0.0103,0.0104,0,0,0,0,0,0,0,0,0,0,0,0,0,0.0067,0.0071,0.0062,0.0058,0.0057,0.0056,0.0056,0.0056,0.0051,0.0051,0.0051,0.0051,0.01,0.0102,0.0105,0.0122,0,0,0.0111,0.0112,0,0,0,0,0,0,0,0,0.0068,0.0067,0.0059,0.0058,0.0058,0.0053,0.0077,0.008,0.0051,0.0055,0.0051,0.005,0.009,0.0093,0.0093,0.0125,0.0127,0.0112,0.0113,0.0114,0.0114,0,0,0,0,0,0,0,0.0068,0.0067,0.0061,0.0059,0.0058,0.0057,0.0056,0.0078,0.0075,0.0054,0.0054,0.0051,0.009,0.0091,0.0094,0.0128,0.0111,0.0113,0.0115,0.0116,0.0188,0.0188,0,0,0,0,0,0,0.0067,0.0068,0.0061,0.006,0.0061,0.0056,0.0056,0.0056,0.0074,0.0076,0.0052,0.0051,0.0087,0.0092,0.0096,0.0142,0.0114,0.0116,0.0117,0.0187,0.0188,0.0189,0,0,0,0,0,0,0.0067,0.0066,0.0061,0.0063,0.0062,0.0056,0.0056,0.0056,0.0057,0.0071,0.0074,0.0054,0.0087,0.0093,0.012,0.0143,0.0117,0.0119,0.0187,0.0187,0.0188,0.0219,0,0,0,0,0,0,0.0067,0.0067,0.0068,0.0063,0.0062,0.0065,0.0056,0.0056,0.0055,0.0055,0.0074,0.0078,0.0087,0.0117,0.0122,0.0146,0.0121,0.0186,0.0187,0.0188,0.0218,0.0221,0.0224,0,0,0,0,0,0.0068,0.0071,0.0068,0.0068,0.0064,0.0065,0.0065,0.006,0.0056,0.0061,0.0073,0.0078,0.0127,0.0119,0.0125,0.015,0.0185,0.0187,0.0188,0.0216,0.0221,0.0224,0,0,0,0,0,0,0.0077,0.007,0.0068,0.0069,0.0069,0.0064,0.0066,0.0063,0.0075,0.0076,0.0088,0.0093,0.0125,0.0131,0.0121,0.0172,0.0157,0.0159,0.0176,0.018,0.0183,0.018,0.0122,0,0,0,0,0,0.0079,0.008,0.0075,0.0077,0.0076,0.0072,0.0072,0.007,0.0076,0.008,0.0095,0.0112,0.0135,0.0151,0.0168,0.02,0.0182,0.0218,0.0222,0.0225,0.0225,0.0204,0.0205,0.0193,0.0193,0.0193,0,0,0.0082,0.008,0.008,0.0079,0.0078,0.0087,0.0072,0.0074,0.0093,0.0087,0.0119,0.0124,0.0144,0.0177,0.0193,0.0187,0.022,0.0226,0.0229,0.0228,0.0205,0.0206,0.0207,0.0194,0.0194,0.0194,0,0,0.0092,0.0088,0.0093,0.0096,0.0095,0.0097,0.0099,0.0099,0.011,0.0135,0.0138,0.0152,0.0188,0.0205,0.0219,0.0251,0.0235,0.026,0.0282,0.0261,0.0262,0.0262,0.0244,0.0243,0.0266,0.0266,0.0266,0,0.0097,0.0104,0.0095,0.0104,0.0114,0.0104,0.012,0.0132,0.0144,0.0162,0.015,0.0188,0.0202,0.0244,0.0255,0.026,0.0242,0.0267,0.0265,0.0265,0.0264,0.0246,0.0244,0.0268,0.0268,0.0267,0.0267,0,0.0111,0.012,0.0124,0.0137,0.0147,0.0158,0.0171,0.0189,0.0197,0.0205,0.0237,0.0241,0.0264,0.0271,0.0276,0.0293,0.0279,0.0267,0.0253,0.0267,0.0247,0.0244,0.027,0.0269,0.0269,0.0269,0,0,0.0121,0.0132,0.0137,0.0153,0.0167,0.0181,0.0217,0.0248,0.0277,0.0279,0.0305,0.0333,0.0319,0.0332,0.0333,0.0317,0.0301,0.0294,0.0292,0.0274,0.0253,0.0254,0.0251,0.0284,0.0284,0.0283,0.0241,0,0.0139,0.0161,0.0169,0.0207,0.0222,0.0238,0.0276,0.0304,0.0323,0.0345,0.0342,0.0365,0.035,0.0356,0.0339,0.0313,0.0294,0.0313,0.0244,0.0242,0.0239,0.0248,0.0282,0.0239,0.0238,0.0237,0.0237,0,0.0157,0.0171,0.0204,0.0249,0.0259,0.0285,0.0344,0.0381,0.041,0.0419,0.0426,0.0415,0.0413,0.0379,0.0336,0.0347,0.0304,0.027,0.0267,0.0255,0.0238,0.022,0.0231,0.0232,0.0232,0.0233,0.0233,0,0.0171,0.0206,0.0236,0.0248,0.0289,0.0322,0.0358,0.0401,0.0443,0.0464,0.047,0.046,0.0451,0.0396,0.0338,0.0333,0.0266,0.0252,0.0211,0.021,0.0206,0.0206,0.0204,0.0204,0.0204,0.0204,0.0204,0,0.0192,0.0221,0.0245,0.0262,0.0317,0.0344,0.0412,0.0444,0.0482,0.0522,0.0508,0.0509,0.045,0.0407,0.0344,0.0275,0.0273,0.0215,0.02,0.0222,0.0224,0.0204,0.0205,0.0202,0.0203,0.0203,0.0203,0,0.0205,0.0217,0.0256,0.03,0.0322,0.0367,0.0448,0.0493,0.0523,0.0565,0.0569,0.0547,0.0496,0.0433,0.0344,0.0293,0.0221,0.0192,0.0227,0.0214,0.0175,0.0178,0.0144,0.0144,0.0143,0.0143,0.0143,0,0.0213,0.0229,0.0282,0.0312,0.0336,0.0404,0.0453,0.051,0.0552,0.0584,0.0592,0.056,0.0535,0.0413,0.0342,0.0234,0.0212,0.0174,0.0168,0.018,0.0169,0.0172,0.0175,0.0143,0.0143,0.0142,0.0142,0,0.023,0.0245,0.0277,0.0332,0.0384,0.0452,0.0519,0.0547,0.0606,0.0622,0.0609,0.0557,0.0499,0.041,0.0335,0.0251,0.0201,0.0171,0.017,0.0165,0.0178,0.0168,0.0171,0.0142,0.0142,0.0142,0.0142,0,0.0244,0.0267,0.0303,0.0358,0.042,0.0481,0.0522,0.0562,0.0604,0.0627,0.0616,0.0558,0.0528,0.0418,0.0342,0.0273,0.0247,0.021,0.0207,0.0208,0.024,0.0267,0.0246,0,0,0,0,0,0.0255,0.0282,0.033,0.0388,0.0447,0.0488,0.0556,0.0589,0.0626,0.0619,0.0623,0.0568,0.0466,0.0417,0.0347,0.0333,0.0235,0.0247,0.0191,0.0137,0.0138,0.0165,0,0,0,0,0,0,0.0263,0.0303,0.0327,0.04,0.0444,0.0516,0.0562,0.0591,0.0587,0.0604,0.0548,0.0535,0.0434,0.0503,0.0339,0.032,0.0271,0.0205,0.0203,0.0136,0.0137,0.0138,0.0166,0,0,0,0,0]}]]